Weather History for Amsterdam, Netherlands

Change the Weather History Date:

Saturday, December 22, 2012

  Actual Average Record
Temperature  
Mean Temperature 44 °F -  
Max Temperature 46 °F 41 °F 50 °F (2004)
Min Temperature 43 °F 33 °F 19 °F (2007)
Degree Days  
Heating Degree Days 20    
Moisture  
Dew Point 43 °F    
Average Humidity 95    
Maximum Humidity 100    
Minimum Humidity 92    
Precipitation  
Precipitation 0.24 in - - ()
Sea Level Pressure  
Sea Level Pressure 29.80 in    
Wind  
Wind Speed 9 mph ()    
Max Wind Speed 17 mph    
Max Gust Speed -    
Visibility 4.1 miles    
Events Rain    
Averages and records for this station are not official NWS values.
T = Trace of Precipitation, MM = Missing Value Source: Averaged Metar Reports

Daily Weather History Graph

Daily Weather History Graph

Search for Another Location

Airport:

Trip Planner

Search our weather history database for the weather conditions in past years. The results will help you decide how hot, cold, wet, or windy it might be!

Date:

Astronomy

Dec. 22, 2012 Rise Set
Actual Time 8:48 AM CET 4:30 PM CET
Civil Twilight 8:07 AM CET 5:11 PM CET
Nautical Twilight 7:23 AM CET 5:55 PM CET
Astronomical Twilight 6:41 AM CET 6:37 PM CET
Moon 1:04 PM CET (12/22) 2:51 AM CET (12/22)
Length of Visible Light 9h 04m
Length of Day
7h 41m
Waxing Gibbous, 71% of the Moon is Illuminated
Dec 22
Waxing Gibbous
Dec 28
Full
Jan 5
Last Quarter
Jan 11
New
Jan 19
First Quarter

Hourly Weather History & Observations

Time (CET) Temp. Windchill Dew Point Humidity Pressure Visibility Wind Dir Wind Speed Gust Speed Precip Events Conditions
12:25 AM 44.6 °F 40.2 °F 44.6 °F 100% 29.92 in 6.2 mi SW 8.1 mph - N/A   Overcast
12:55 AM 44.6 °F 40.7 °F 44.6 °F 100% 29.95 in 6.2 mi SW 6.9 mph - N/A Rain Light Rain
1:00 AM 44 °F - 44 °F 97% 29.95 in 6 mi SW 6.7 mph - - Rain Drizzle
1:25 AM 44.6 °F 40.2 °F 42.8 °F 93% 29.92 in 6.2 mi SW 8.1 mph - N/A   Mostly Cloudy
1:55 AM 44.6 °F 40.7 °F 42.8 °F 93% 29.92 in 6.2 mi SW 6.9 mph - N/A   Mostly Cloudy
2:25 AM 44.6 °F 40.2 °F 42.8 °F 93% 29.95 in 6.2 mi SW 8.1 mph - N/A   Mostly Cloudy
2:55 AM 44.6 °F 40.2 °F 42.8 °F 93% 29.95 in 6.2 mi SW 8.1 mph - N/A   Mostly Cloudy
3:25 AM 44.6 °F 40.2 °F 42.8 °F 93% 29.95 in 6.2 mi SSW 8.1 mph - N/A   Mostly Cloudy
3:55 AM 44.6 °F 40.2 °F 42.8 °F 93% 29.95 in 6.2 mi SSW 8.1 mph - N/A   Mostly Cloudy
4:00 AM 45 °F - 44 °F 92% 29.96 in 6 mi SSW 6.7 mph - -   Partly Cloudy
4:25 AM 44.6 °F 40.2 °F 42.8 °F 93% 29.95 in 6.2 mi SSW 8.1 mph - N/A   Mostly Cloudy
4:55 AM 44.6 °F 40.2 °F 42.8 °F 93% 29.95 in 6.2 mi SSW 8.1 mph - N/A   Mostly Cloudy
5:25 AM 44.6 °F 40.2 °F 42.8 °F 93% 29.92 in 6.2 mi SSW 8.1 mph - N/A   Mostly Cloudy
5:55 AM 44.6 °F 39.2 °F 42.8 °F 93% 29.92 in 6.2 mi SSW 10.4 mph - N/A   Mostly Cloudy
6:25 AM 44.6 °F 39.2 °F 42.8 °F 93% 29.92 in 6.2 mi SSW 10.4 mph - N/A   Mostly Cloudy
6:55 AM 44.6 °F 39.7 °F 42.8 °F 93% 29.95 in 4.3 mi SSW 9.2 mph - N/A   Mostly Cloudy
7:00 AM 44 °F - 43 °F 96% 29.94 in 4 mi South 8.9 mph - -   Mist
7:25 AM 44.6 °F 40.2 °F 42.8 °F 93% 29.92 in 3.1 mi SSW 8.1 mph - N/A   Overcast
7:55 AM 44.6 °F 39.7 °F 42.8 °F 93% 29.92 in 2.5 mi South 9.2 mph - N/A   Overcast
8:25 AM 44.6 °F 39.7 °F 42.8 °F 93% 29.92 in 1.6 mi South 9.2 mph - N/A   Overcast
8:55 AM 44.6 °F 39.2 °F 44.6 °F 100% 29.92 in 0.9 mi South 10.4 mph - N/A   Overcast
9:25 AM 44.6 °F 39.7 °F 44.6 °F 100% 29.92 in 1.4 mi South 9.2 mph - N/A   Overcast
9:55 AM 44.6 °F 39.2 °F 44.6 °F 100% 29.92 in 1.9 mi South 10.4 mph - N/A   Overcast
10:00 AM 45 °F - 44 °F 94% 29.93 in 2 mi South 11.2 mph - -   Mist
10:25 AM 44.6 °F 38.4 °F 44.6 °F 100% 29.92 in - South 12.7 mph - N/A   Overcast
10:55 AM 44.6 °F 38.4 °F 42.8 °F 93% 29.89 in - South 12.7 mph - N/A   Overcast
11:25 AM 44.6 °F 38.8 °F 44.6 °F 100% 29.89 in 3.1 mi South 11.5 mph - N/A   Overcast
11:55 AM 44.6 °F 38.4 °F 42.8 °F 93% 29.89 in - South 12.7 mph - N/A   Overcast
12:25 PM 44.6 °F 38.8 °F 42.8 °F 93% 29.86 in - South 11.5 mph - N/A Rain Light Rain
12:55 PM 44.6 °F 39.2 °F 44.6 °F 100% 29.86 in 2.8 mi South 10.4 mph - N/A Rain Light Rain
1:00 PM 45 °F - 44 °F 93% 29.86 in 3 mi South 11.2 mph - - Rain Drizzle
1:25 PM 44.6 °F 38.4 °F 44.6 °F 100% 29.83 in 2.5 mi South 12.7 mph - N/A Rain Light Rain
1:55 PM 44.6 °F 38.4 °F 44.6 °F 100% 29.83 in 3.7 mi South 12.7 mph - N/A Rain Light Rain
2:25 PM 44.6 °F 38.8 °F 42.8 °F 93% 29.80 in 5.6 mi SSE 11.5 mph - N/A Rain Light Rain
2:55 PM 44.6 °F 38.1 °F 42.8 °F 93% 29.77 in 6.2 mi SE 13.8 mph - N/A Rain Light Rain
3:25 PM 44.6 °F 37.8 °F 42.8 °F 93% 29.74 in 5.0 mi SE 15.0 mph - N/A Rain Light Rain
3:55 PM 44.6 °F 37.8 °F 42.8 °F 93% 29.74 in 5.6 mi SE 15.0 mph - N/A Rain Light Rain
4:00 PM 44 °F - 43 °F 93% 29.74 in 8 mi SE 15.7 mph - - Rain Rain
4:25 PM 44.6 °F 37.4 °F 42.8 °F 93% 29.71 in 5.6 mi SE 16.1 mph - N/A Rain Light Rain
4:55 PM 44.6 °F 37.2 °F 42.8 °F 93% 29.71 in 3.1 mi SE 17.3 mph - N/A Rain Light Rain
5:25 PM 44.6 °F 37.4 °F 42.8 °F 93% 29.68 in 3.7 mi SE 16.1 mph - N/A Rain Light Rain
5:55 PM 44.6 °F 37.4 °F 42.8 °F 93% 29.65 in 6.2 mi SE 16.1 mph - N/A   Light Drizzle
6:25 PM 44.6 °F 37.2 °F 42.8 °F 93% 29.62 in 3.1 mi SE 17.3 mph - N/A   Light Drizzle
6:55 PM 44.6 °F 37.4 °F 42.8 °F 93% 29.62 in 1.9 mi SE 16.1 mph - N/A   Drizzle
7:00 PM 44 °F - 43 °F 95% 29.64 in 2 mi SE 15.7 mph - - Rain Heavy Drizzle
7:25 PM 44.6 °F 37.8 °F 42.8 °F 93% 29.62 in - SE 15.0 mph - N/A   Drizzle
7:55 PM 44.6 °F 37.4 °F 42.8 °F 93% 29.59 in 2.2 mi SE 16.1 mph - N/A   Drizzle
8:25 PM 44.6 °F 37.4 °F 42.8 °F 93% 29.59 in 1.7 mi SSE 16.1 mph - N/A   Drizzle
8:55 PM 44.6 °F 37.8 °F 42.8 °F 93% 29.56 in 2.2 mi SSE 15.0 mph - N/A Rain Light Rain
9:25 PM 44.6 °F 38.4 °F 42.8 °F 93% 29.56 in 2.2 mi SSE 12.7 mph - N/A Rain Light Rain
9:55 PM 44.6 °F 38.4 °F 44.6 °F 100% 29.56 in 1.7 mi SSE 12.7 mph - N/A   Drizzle
10:00 PM 45 °F - 44 °F 95% 29.58 in 2 mi SSE 11.2 mph - - Rain Drizzle
10:25 PM 44.6 °F 38.4 °F 44.6 °F 100% 29.56 in 1.6 mi SSE 12.7 mph - N/A Rain Light Drizzle
10:55 PM 44.6 °F 38.8 °F 44.6 °F 100% 29.53 in 2.2 mi SSE 11.5 mph - N/A Rain Light Rain
11:25 PM 46.4 °F 41.1 °F 46.4 °F 100% 29.53 in 1.8 mi SSE 11.5 mph - N/A Rain Rain
11:55 PM 46.4 °F 41.9 °F 46.4 °F 100% 29.53 in - South 9.2 mph - N/A Rain Rain